Regina,

8:03 AM CST on April 25, 2018 (GMT -0600)
Regina

Weather History for CYQR - March, 2013

Change the Weather History Date:

Monday, March 25, 2013

  Actual Average Record
Temperature  
Mean Temperature 2 °F -  
Max Temperature 12 °F 48 °F 64 °F (2007)
Min Temperature -7 °F 25 °F -7 °F (2005)
Degree Days  
Heating Degree Days 62    
Moisture  
Dew Point -1 °F    
Average Humidity 86    
Maximum Humidity 100    
Minimum Humidity 64    
Precipitation  
Precipitation 0.00 in 0.03 in - ()
Sea Level Pressure  
Sea Level Pressure 30.46 in    
Wind  
Wind Speed 6 mph ()    
Max Wind Speed 16 mph    
Max Gust Speed -    
Visibility 6.8 miles    
Events Fog    
Averages and records for this station are not official NWS values.
T = Trace of Precipitation, MM = Missing Value Source: Averaged Metar Reports

Daily Weather History Graph

Daily Weather History Graph

Search for Another Location

Airport or City:

Astronomy

Mar. 25, 2013 Rise Set
Actual Time 6:49 AM CST 7:20 PM CST
Civil Twilight 6:16 AM CST 7:53 PM CST
Nautical Twilight 5:38 AM CST 8:32 PM CST
Astronomical Twilight 4:57 AM CST 9:13 PM CST
Moon 5:49 PM CST 5:42 AM CST
Length of Visible Light 13h 36m
Length of Day
12h 30m
Waxing Gibbous, 97% of the Moon is Illuminated
Mar 25
Waxing Gibbous
Mar 27
Full
Apr 2
Last Quarter
Apr 10
New
Apr 18
First Quarter

Hourly Weather History & Observations

Time (CST) Temp. Windchill Dew Point Humidity Pressure Visibility Wind Dir Wind Speed Gust Speed Precip Events Conditions
12:00 AM -6 °F - -7 °F 92% 30.50 in 0 mi NW 10.4 mph - -   Overcast
12:00 AM -5.8 °F -23.4 °F -5.8 °F 100% 30.51 in 0.5 mi NW 10.4 mph - N/A Fog Light Freezing Fog
12:36 AM -4.0 °F - - N/A% - 0.8 mi Calm Calm - N/A   Clear
1:00 AM -4.0 °F - -5.8 °F 92% 30.51 in 0.5 mi Calm Calm - N/A Fog Light Freezing Fog
1:12 AM -5.8 °F - - N/A% - 0.1 mi Calm Calm - N/A Fog Light Freezing Fog
2:00 AM -4.0 °F - -5.8 °F 92% 30.51 in 0.1 mi Calm Calm - N/A Fog Light Freezing Fog
3:00 AM -4.0 °F - -7.6 °F 85% 30.50 in 0.1 mi SW 2.3 mph - N/A Fog Light Freezing Fog
4:00 AM -4.0 °F - -11.2 °F 71% 30.50 in 0.1 mi WSW 2.3 mph - N/A Fog Light Freezing Fog
5:17 AM -4.0 °F - - N/A% - 2.0 mi SSE 2.3 mph - N/A   Overcast
5:29 AM -2.2 °F - - N/A% - 0.8 mi ESE 2.3 mph - N/A   Overcast
6:00 AM -5 °F - -11 °F 64% 30.50 in 0 mi ESE 4.6 mph - -  
6:00 AM -5.8 °F -14.5 °F -11.2 °F 77% 30.50 in 1.5 mi East 3.5 mph - N/A   Scattered Clouds
7:00 AM -7.6 °F -16.5 °F -13.0 °F 77% 30.51 in 1.8 mi ESE 3.5 mph - N/A   Overcast
8:00 AM -5.8 °F -18.4 °F -11.2 °F 77% 30.50 in 1.5 mi SE 5.8 mph - N/A   Overcast
8:10 AM -5.8 °F -19.9 °F - N/A% - 0.5 mi SE 6.9 mph - N/A Fog Light Freezing Fog
8:50 AM -4.0 °F -16.3 °F - N/A% - 1.5 mi SE 5.8 mph - N/A   Overcast
9:00 AM -4.0 °F -14.6 °F -9.4 °F 78% 30.52 in 2.0 mi ESE 4.6 mph - N/A   Overcast
9:16 AM -4.0 °F -12.4 °F - N/A% - 4.0 mi ESE 3.5 mph - N/A   Scattered Clouds
10:00 AM -0.4 °F -12.0 °F -4.0 °F 85% 30.51 in 10.0 mi ESE 5.8 mph - N/A   Scattered Clouds
11:00 AM 3.2 °F -6.2 °F -0.4 °F 85% 30.51 in 10.0 mi SSE 4.6 mph - N/A   Mostly Cloudy
12:00 PM 4 °F - 1 °F 82% 30.49 in 6 mi SE 9.2 mph - -  
12:00 PM 5.0 °F -9.1 °F 1.4 °F 85% 30.49 in 15.0 mi SE 9.2 mph - N/A   Partly Cloudy
1:00 PM 6.8 °F -5.9 °F 3.2 °F 85% 30.48 in 15.0 mi SE 8.1 mph - N/A   Partly Cloudy
2:00 PM 8.6 °F -6.3 °F 6.8 °F 92% 30.46 in 15.0 mi SE 11.5 mph - N/A   Partly Cloudy
3:00 PM 10.4 °F -4.1 °F 8.6 °F 92% 30.43 in 15.0 mi SE 11.5 mph - N/A   Partly Cloudy
4:00 PM 12.2 °F -2.5 °F 10.4 °F 92% 30.41 in 15.0 mi SE 12.7 mph - N/A   Scattered Clouds
5:00 PM 10.4 °F -4.1 °F 8.6 °F 92% 30.41 in 15.0 mi SE 11.5 mph - N/A   Scattered Clouds
6:00 PM 10 °F - 6 °F 79% 30.40 in 9 mi SE 12.7 mph - -  
6:00 PM 10.4 °F -4.8 °F 6.8 °F 85% 30.40 in 15.0 mi SE 12.7 mph - N/A   Scattered Clouds
7:00 PM 8.6 °F -8.3 °F 5.0 °F 85% 30.39 in 15.0 mi SE 15.0 mph - N/A   Partly Cloudy
8:00 PM 6.8 °F -11.3 °F 5.0 °F 92% 30.39 in 15.0 mi SE 16.1 mph - N/A   Partly Cloudy
9:00 PM 5.0 °F -12.3 °F 3.2 °F 92% 30.38 in 15.0 mi SE 13.8 mph - N/A   Clear
10:00 PM 3.2 °F -13.9 °F 1.4 °F 92% 30.38 in 15.0 mi SE 12.7 mph - N/A   Partly Cloudy
11:00 PM 3.2 °F -13.9 °F 1.4 °F 92% 30.37 in 15.0 mi SE 12.7 mph - N/A   Partly Cloudy